ANA128 RJAA-CYVR

Flight info

Callsign ANA128
Flight time N/A
Altitude 33000
Route GULBO Y808 NOLAX Y812 ADNAP R591 ADGOR CUTEE DCT 48N170E 51N180E DCT RADIC DCT 55N160W 55N150W 53N140W DCT MANJO DCT POWOL
Aircraft B77W/H-SDE1E2E3FGHIJ2J3J4J5M1RWXY/LB1D1

Departure

Time 2026-05-08 06:10
Airport Narita International Airport (RJAA)

Arrival

Time N/A
Airport Vancouver International Airport (CYVR)
Time Latitude Longitude Altitude Speed Heading
2026-05-08 05:42 35.76033 140.38719 144 ft 0 kts 239°
2026-05-08 05:57 35.76037 140.38728 143 ft 2 kts 239°
2026-05-08 05:57 35.76044 140.38744 143 ft 2 kts 239°
2026-05-08 05:57 35.76049 140.38754 143 ft 2 kts 239°
2026-05-08 05:58 35.76059 140.38768 144 ft 2 kts 214°
2026-05-08 05:58 35.76072 140.38776 143 ft 2 kts 189°
2026-05-08 05:58 35.76087 140.38776 144 ft 2 kts 167°
2026-05-08 05:58 35.76100 140.38770 144 ft 2 kts 145°
2026-05-08 05:59 35.76112 140.38757 143 ft 2 kts 123°
2026-05-08 05:59 35.76115 140.38748 143 ft 1 kts 112°
2026-05-08 05:59 35.76116 140.38747 143 ft 0 kts 113°
2026-05-08 06:02 35.76111 140.38760 143 ft 4 kts 113°
2026-05-08 06:02 35.76093 140.38812 143 ft 8 kts 113°
2026-05-08 06:02 35.76065 140.38892 143 ft 10 kts 114°
2026-05-08 06:02 35.76037 140.38963 143 ft 8 kts 115°
2026-05-08 06:03 35.76011 140.39023 143 ft 7 kts 130°
2026-05-08 06:03 35.75967 140.39069 143 ft 9 kts 147°
2026-05-08 06:03 35.75903 140.39117 143 ft 12 kts 149°
2026-05-08 06:03 35.75829 140.39143 143 ft 10 kts 207°
2026-05-08 06:04 35.75776 140.39066 143 ft 13 kts 237°
2026-05-08 06:04 35.75724 140.38960 143 ft 15 kts 239°
2026-05-08 06:04 35.75664 140.38834 143 ft 19 kts 239°
2026-05-08 06:04 35.75601 140.38681 143 ft 20 kts 257°
2026-05-08 06:05 35.75638 140.38516 143 ft 21 kts 321°
2026-05-08 06:05 35.75768 140.38420 143 ft 22 kts 329°
2026-05-08 06:05 35.75908 140.38319 143 ft 24 kts 329°
2026-05-08 06:05 35.76058 140.38211 143 ft 25 kts 329°
2026-05-08 06:06 35.76208 140.38101 143 ft 25 kts 329°
2026-05-08 06:06 35.76355 140.37994 143 ft 19 kts 329°
2026-05-08 06:06 35.76405 140.37880 143 ft 15 kts 270°
2026-05-08 06:06 35.76471 140.37782 143 ft 17 kts 329°
2026-05-08 06:07 35.76589 140.37700 143 ft 21 kts 330°
2026-05-08 06:07 35.76680 140.37636 143 ft 23 kts 329°
2026-05-08 06:07 35.76861 140.37501 143 ft 21 kts 329°
2026-05-08 06:07 35.76992 140.37408 143 ft 22 kts 329°
2026-05-08 06:08 35.77127 140.37311 143 ft 22 kts 329°
2026-05-08 06:08 35.77264 140.37210 143 ft 23 kts 328°
2026-05-08 06:08 35.77330 140.37080 143 ft 18 kts 252°
2026-05-08 06:08 35.77264 140.36975 143 ft 12 kts 193°
2026-05-08 06:09 35.77197 140.37004 143 ft 9 kts 150°
2026-05-08 06:09 35.77134 140.37048 143 ft 24 kts 148°
2026-05-08 06:09 35.76790 140.37299 143 ft 89 kts 149°
2026-05-08 06:09 35.76089 140.37801 144 ft 144 kts 149°
2026-05-08 06:10 35.75077 140.38519 223 ft 183 kts 153°
2026-05-08 06:10 35.74012 140.39319 900 ft 178 kts 152°
2026-05-08 06:10 35.72950 140.40111 1578 ft 181 kts 155°
2026-05-08 06:10 35.71859 140.40927 2092 ft 187 kts 156°
2026-05-08 06:11 35.70700 140.41768 2529 ft 194 kts 157°
2026-05-08 06:11 35.69538 140.42592 3126 ft 193 kts 158°
2026-05-08 06:11 35.68329 140.43440 3436 ft 209 kts 158°
2026-05-08 06:11 35.67016 140.44356 3715 ft 227 kts 157°
2026-05-08 06:12 35.65577 140.45375 4042 ft 246 kts 156°
2026-05-08 06:12 35.64040 140.46458 4475 ft 261 kts 156°
2026-05-08 06:12 35.62471 140.47578 5137 ft 267 kts 155°
2026-05-08 06:12 35.60869 140.48744 5827 ft 272 kts 155°
2026-05-08 06:13 35.59243 140.49931 6557 ft 274 kts 155°
2026-05-08 06:13 35.57599 140.51135 7269 ft 277 kts 156°
2026-05-08 06:13 35.55938 140.52328 7971 ft 279 kts 157°
2026-05-08 06:13 35.54246 140.53538 8648 ft 282 kts 157°
2026-05-08 06:14 35.52539 140.54761 9320 ft 285 kts 157°
2026-05-08 06:14 35.50872 140.56061 9958 ft 295 kts 146°
2026-05-08 06:14 35.49554 140.58110 10380 ft 323 kts 121°
2026-05-08 06:14 35.48988 140.60895 10651 ft 352 kts 99°
2026-05-08 06:15 35.48826 140.63977 11009 ft 370 kts 97°
2026-05-08 06:15 35.48700 140.67198 11365 ft 387 kts 97°
2026-05-08 06:15 35.48573 140.70558 11716 ft 403 kts 97°
2026-05-08 06:15 35.48440 140.74045 12150 ft 416 kts 97°
2026-05-08 06:16 35.48305 140.77602 12763 ft 424 kts 97°
2026-05-08 06:16 35.48169 140.81201 13511 ft 427 kts 97°
2026-05-08 06:16 35.48031 140.84817 14265 ft 432 kts 97°
2026-05-08 06:16 35.47887 140.88524 14980 ft 438 kts 98°
2026-05-08 06:17 35.47592 140.96088 16425 ft 448 kts 98°
2026-05-08 06:17 35.47443 140.99870 17163 ft 452 kts 98°
2026-05-08 06:17 35.47288 141.03749 17766 ft 459 kts 99°
2026-05-08 06:18 35.47131 141.07654 18407 ft 465 kts 98°
2026-05-08 06:18 35.46969 141.11650 19047 ft 470 kts 98°
2026-05-08 06:18 35.46807 141.15636 19673 ft 475 kts 98°
2026-05-08 06:18 35.46641 141.19694 20376 ft 478 kts 97°
2026-05-08 06:19 35.46473 141.23773 20968 ft 483 kts 97°
2026-05-08 06:19 35.46301 141.27881 21439 ft 490 kts 97°
2026-05-08 06:19 35.46124 141.32094 21993 ft 495 kts 97°
2026-05-08 06:19 35.45947 141.36305 22576 ft 499 kts 97°
2026-05-08 06:20 35.45766 141.40549 23136 ft 503 kts 96°
2026-05-08 06:20 35.45583 141.44853 23724 ft 506 kts 96°
2026-05-08 06:20 35.45399 141.49118 24280 ft 511 kts 96°
2026-05-08 06:20 35.45207 141.53531 24819 ft 515 kts 96°
2026-05-08 06:21 35.45017 141.57884 25430 ft 518 kts 96°
2026-05-08 06:21 35.44823 141.62291 26034 ft 520 kts 96°
2026-05-08 06:21 35.44627 141.66739 26558 ft 525 kts 97°
2026-05-08 06:21 35.44428 141.71176 27026 ft 529 kts 97°
2026-05-08 06:22 35.44226 141.75711 27532 ft 533 kts 96°
2026-05-08 06:22 35.44139 141.80252 28034 ft 537 kts 94°
2026-05-08 06:22 35.44122 141.84837 28529 ft 541 kts 93°
2026-05-08 06:22 35.44104 141.89449 28994 ft 545 kts 93°
2026-05-08 06:23 35.44082 141.94092 29472 ft 548 kts 94°
2026-05-08 06:23 35.44055 141.98779 29994 ft 551 kts 94°
2026-05-08 06:23 35.44024 142.03473 30526 ft 553 kts 94°
2026-05-08 06:23 35.43990 142.08147 31132 ft 553 kts 93°
2026-05-08 06:24 35.43953 142.12839 31789 ft 551 kts 94°
2026-05-08 06:24 35.43913 142.17539 32481 ft 548 kts 94°
2026-05-08 06:24 35.43870 142.22150 32756 ft 550 kts 94°
2026-05-08 06:24 35.43825 142.26886 32764 ft 549 kts 94°
2026-05-08 06:25 35.43730 142.36165 32763 ft 544 kts 94°
2026-05-08 06:25 35.43625 142.45489 32762 ft 545 kts 94°
2026-05-08 06:26 35.43514 142.54770 32775 ft 544 kts 94°
2026-05-08 06:26 35.43395 142.64006 32772 ft 543 kts 94°
2026-05-08 06:27 35.43270 142.73186 32768 ft 542 kts 95°
2026-05-08 06:27 35.43137 142.82410 32775 ft 541 kts 95°
2026-05-08 06:28 35.42997 142.91615 32765 ft 540 kts 95°
2026-05-08 06:28 35.42851 143.00800 32782 ft 539 kts 95°
2026-05-08 06:29 35.42697 143.09973 32787 ft 540 kts 95°
2026-05-08 06:29 35.42538 143.19174 32802 ft 540 kts 94°
2026-05-08 06:30 35.43388 143.28334 32799 ft 545 kts 77°
2026-05-08 06:30 35.46220 143.36931 32791 ft 550 kts 59°
2026-05-08 06:31 35.50866 143.44369 32796 ft 548 kts 44°
2026-05-08 06:31 35.56143 143.51036 32804 ft 546 kts 43°
2026-05-08 06:32 35.61433 143.57732 32805 ft 547 kts 44°
2026-05-08 06:32 35.66736 143.64481 32796 ft 546 kts 43°
2026-05-08 06:33 35.71993 143.71199 32780 ft 544 kts 44°
2026-05-08 06:33 35.77225 143.77907 32791 ft 544 kts 44°
2026-05-08 06:34 35.82443 143.84613 32793 ft 544 kts 44°
2026-05-08 06:34 35.87686 143.91368 32790 ft 544 kts 44°
2026-05-08 06:35 35.92910 143.98116 32790 ft 544 kts 44°
2026-05-08 06:35 35.98126 144.04866 32792 ft 543 kts 44°
2026-05-08 06:36 36.03344 144.11635 32805 ft 544 kts 44°
2026-05-08 06:36 36.08537 144.18394 32811 ft 545 kts 44°
2026-05-08 06:37 36.13729 144.25168 32801 ft 545 kts 44°
2026-05-08 06:37 36.18929 144.31967 32797 ft 547 kts 44°
2026-05-08 06:38 36.24148 144.38805 32806 ft 545 kts 44°
2026-05-08 06:38 36.29364 144.45651 32796 ft 546 kts 44°
2026-05-08 06:39 36.34608 144.52548 32794 ft 549 kts 44°
2026-05-08 06:39 36.39811 144.59407 32799 ft 547 kts 44°
2026-05-08 06:40 36.45022 144.66292 32788 ft 547 kts 44°
2026-05-08 06:40 36.50236 144.73193 32781 ft 548 kts 45°
2026-05-08 06:41 36.55424 144.80075 32784 ft 548 kts 45°
2026-05-08 06:41 36.60624 144.86989 32792 ft 549 kts 45°
2026-05-08 06:42 36.65832 144.93927 32796 ft 548 kts 45°
2026-05-08 06:42 36.71064 145.00909 32789 ft 549 kts 45°
2026-05-08 06:43 36.76259 145.07861 32789 ft 549 kts 45°
2026-05-08 06:43 36.81466 145.14842 32798 ft 548 kts 45°
2026-05-08 06:44 36.86639 145.21793 32800 ft 549 kts 45°
2026-05-08 06:44 36.91831 145.28783 32794 ft 549 kts 45°
2026-05-08 06:45 36.97022 145.35786 32799 ft 549 kts 45°
2026-05-08 06:45 37.02207 145.42799 32797 ft 548 kts 45°
2026-05-08 06:46 37.07383 145.49814 32802 ft 548 kts 45°
2026-05-08 06:46 37.12543 145.56821 32785 ft 549 kts 45°
2026-05-08 06:47 37.17710 145.63855 32792 ft 549 kts 45°
2026-05-08 06:47 37.23017 145.70709 32782 ft 546 kts 40°
2026-05-08 06:48 37.28605 145.77078 32782 ft 546 kts 40°
2026-05-08 06:48 37.34209 145.83511 32780 ft 547 kts 40°
2026-05-08 06:49 37.39821 145.90001 32786 ft 545 kts 40°
2026-05-08 06:49 37.45365 145.96443 32784 ft 545 kts 41°
2026-05-08 06:50 37.50914 146.02916 32782 ft 546 kts 41°
2026-05-08 06:50 37.56488 146.09441 32783 ft 545 kts 41°
2026-05-08 06:51 37.62040 146.15956 32784 ft 547 kts 41°
2026-05-08 06:51 37.67596 146.22490 32785 ft 546 kts 41°
2026-05-08 06:52 37.73140 146.29027 32785 ft 546 kts 41°
2026-05-08 06:52 37.78697 146.35594 32785 ft 546 kts 41°
2026-05-08 06:53 37.84215 146.42129 32794 ft 545 kts 40°
2026-05-08 06:53 37.89761 146.48712 32791 ft 547 kts 40°
2026-05-08 06:54 37.95245 146.55235 32797 ft 544 kts 41°
2026-05-08 06:54 38.00792 146.61848 32791 ft 546 kts 41°
2026-05-08 06:55 38.06303 146.68431 32774 ft 543 kts 41°
2026-05-08 06:55 38.11773 146.74980 32771 ft 544 kts 41°
2026-05-08 06:56 38.17291 146.81602 32772 ft 544 kts 41°
2026-05-08 06:56 38.22758 146.88176 32785 ft 543 kts 41°
2026-05-08 06:57 38.28233 146.94774 32791 ft 545 kts 41°
2026-05-08 06:57 38.33726 147.01408 32793 ft 543 kts 41°
2026-05-08 06:58 38.39168 147.07996 32796 ft 544 kts 41°
2026-05-08 06:58 38.44648 147.14644 32794 ft 543 kts 41°
2026-05-08 06:59 38.50126 147.21303 32798 ft 545 kts 41°
2026-05-08 06:59 38.55571 147.27939 32798 ft 543 kts 41°
2026-05-08 07:00 38.61053 147.34633 32795 ft 543 kts 41°
2026-05-08 07:00 38.66470 147.41263 32796 ft 543 kts 41°
2026-05-08 07:01 38.71918 147.47945 32794 ft 543 kts 42°
2026-05-08 07:01 38.77377 147.54656 32797 ft 543 kts 42°
2026-05-08 07:02 38.82790 147.61325 32805 ft 544 kts 41°
2026-05-08 07:02 38.88233 147.68045 32786 ft 543 kts 43°
2026-05-08 07:03 38.93677 147.74783 32794 ft 542 kts 43°
2026-05-08 07:03 38.99098 147.81506 32794 ft 544 kts 43°
2026-05-08 07:04 39.04525 147.88254 32792 ft 543 kts 43°
2026-05-08 07:04 39.09956 147.95020 32802 ft 544 kts 43°
2026-05-08 07:05 39.15408 148.01828 32791 ft 543 kts 43°
2026-05-08 07:05 39.20789 148.08563 32788 ft 541 kts 43°
2026-05-08 07:06 39.26191 148.15340 32784 ft 544 kts 43°
2026-05-08 07:06 39.31595 148.22133 32785 ft 542 kts 43°
2026-05-08 07:07 39.36996 148.28940 32786 ft 544 kts 42°
2026-05-08 07:07 39.42375 148.35733 32787 ft 542 kts 43°
2026-05-08 07:08 39.47767 148.42558 32788 ft 543 kts 43°
2026-05-08 07:08 39.53170 148.49414 32791 ft 544 kts 43°
2026-05-08 07:09 39.58542 148.56247 32799 ft 543 kts 42°
2026-05-08 07:09 39.63931 148.63115 32796 ft 542 kts 42°
2026-05-08 07:10 39.69288 148.69959 32791 ft 543 kts 43°
2026-05-08 07:10 39.74644 148.76817 32791 ft 543 kts 43°
2026-05-08 07:11 39.80001 148.83693 32796 ft 542 kts 43°
2026-05-08 07:11 39.85370 148.90601 32799 ft 543 kts 43°
2026-05-08 07:12 39.90746 148.97533 32804 ft 543 kts 43°
2026-05-08 07:12 39.96077 149.04423 32804 ft 543 kts 43°
2026-05-08 07:13 40.01421 149.11346 32808 ft 544 kts 43°
2026-05-08 07:13 40.06750 149.18268 32810 ft 542 kts 43°
2026-05-08 07:14 40.12094 149.25223 32804 ft 543 kts 43°
2026-05-08 07:14 40.17442 149.32199 32802 ft 543 kts 43°
2026-05-08 07:15 40.22773 149.39171 32804 ft 544 kts 43°
2026-05-08 07:15 40.28104 149.46158 32804 ft 546 kts 43°
2026-05-08 07:16 40.33452 149.53186 32807 ft 546 kts 43°
2026-05-08 07:16 40.38826 149.60265 32807 ft 546 kts 43°
2026-05-08 07:17 40.43883 149.67635 32803 ft 548 kts 52°
2026-05-08 07:17 40.48527 149.75580 32802 ft 549 kts 52°
2026-05-08 07:18 40.53131 149.83524 32807 ft 549 kts 52°
2026-05-08 07:18 40.57732 149.91492 32809 ft 549 kts 52°
2026-05-08 07:19 40.62331 149.99483 32807 ft 551 kts 52°
2026-05-08 07:19 40.66952 150.07536 32809 ft 550 kts 52°
2026-05-08 07:20 40.71535 150.15547 32809 ft 550 kts 52°
2026-05-08 07:20 40.76129 150.23599 32811 ft 549 kts 52°
2026-05-08 07:21 40.80669 150.31578 32810 ft 549 kts 52°
2026-05-08 07:21 40.85248 150.39645 32811 ft 549 kts 52°
2026-05-08 07:22 40.89844 150.47765 32809 ft 551 kts 52°
2026-05-08 07:22 40.94395 150.55826 32805 ft 550 kts 52°
2026-05-08 07:23 40.98195 150.62573 32803 ft 551 kts 52°
2026-05-08 07:23 41.03511 150.72035 32796 ft 551 kts 53°
2026-05-08 07:24 41.08069 150.80173 32800 ft 550 kts 53°
2026-05-08 07:24 41.12617 150.88313 32794 ft 551 kts 53°
2026-05-08 07:25 41.17151 150.96451 32792 ft 550 kts 53°
2026-05-08 07:26 41.23963 151.08719 32796 ft 551 kts 53°
2026-05-08 07:26 41.28475 151.16870 32796 ft 550 kts 53°
2026-05-08 07:27 41.32998 151.25066 32798 ft 550 kts 53°
2026-05-08 07:27 41.37534 151.33304 32794 ft 551 kts 52°
2026-05-08 07:28 41.42033 151.41496 32795 ft 550 kts 53°
2026-05-08 07:28 41.46523 151.49698 32795 ft 550 kts 53°
2026-05-08 07:29 41.51034 151.57958 32798 ft 551 kts 53°
2026-05-08 07:29 41.55540 151.66231 32795 ft 550 kts 53°
2026-05-08 07:30 41.60016 151.74472 32786 ft 550 kts 53°
2026-05-08 07:30 41.64468 151.82689 32793 ft 550 kts 53°
2026-05-08 07:31 41.68954 151.90993 32803 ft 550 kts 53°
2026-05-08 07:31 41.73397 151.99240 32802 ft 549 kts 53°
2026-05-08 07:32 41.77856 152.07538 32809 ft 550 kts 53°
2026-05-08 07:32 41.82320 152.15869 32804 ft 549 kts 53°
2026-05-08 07:33 41.86738 152.24136 32804 ft 551 kts 53°
2026-05-08 07:33 41.91174 152.32461 32802 ft 550 kts 53°
2026-05-08 07:34 41.95608 152.40804 32805 ft 550 kts 53°
2026-05-08 07:34 42.00048 152.49181 32797 ft 551 kts 53°
2026-05-08 07:35 42.04469 152.57546 32795 ft 549 kts 53°
2026-05-08 07:35 42.08880 152.65915 32794 ft 551 kts 54°
2026-05-08 07:36 42.13300 152.74322 32775 ft 550 kts 54°
2026-05-08 07:36 42.17701 152.82719 32776 ft 551 kts 54°
2026-05-08 07:37 42.22112 152.91159 32776 ft 550 kts 54°
2026-05-08 07:37 42.26520 152.99615 32776 ft 552 kts 54°
2026-05-08 07:38 42.30908 153.08058 32779 ft 550 kts 54°
2026-05-08 07:38 42.35298 153.16530 32781 ft 551 kts 54°
2026-05-08 07:39 42.39658 153.24965 32783 ft 551 kts 54°
2026-05-08 07:39 42.44040 153.33466 32787 ft 550 kts 54°
2026-05-08 07:40 42.48397 153.41943 32792 ft 553 kts 54°
2026-05-08 07:40 42.52784 153.50505 32795 ft 550 kts 54°
2026-05-08 07:41 42.57111 153.58972 32799 ft 554 kts 54°
2026-05-08 07:41 42.61482 153.67548 32787 ft 552 kts 55°
2026-05-08 07:42 42.65823 153.76092 32786 ft 552 kts 54°
2026-05-08 07:42 42.70166 153.84663 32785 ft 552 kts 54°
2026-05-08 07:43 42.74511 153.93263 32783 ft 552 kts 54°
2026-05-08 07:43 42.78834 154.01846 32785 ft 554 kts 54°
2026-05-08 07:44 42.83174 154.10487 32784 ft 552 kts 54°
2026-05-08 07:44 42.87480 154.19084 32785 ft 555 kts 54°
2026-05-08 07:45 42.91822 154.27777 32790 ft 556 kts 54°
2026-05-08 07:45 42.96163 154.36496 32789 ft 555 kts 54°
2026-05-08 07:46 43.00481 154.45192 32791 ft 558 kts 54°
2026-05-08 07:46 43.04830 154.53978 32791 ft 556 kts 54°
2026-05-08 07:47 43.09139 154.62709 32796 ft 558 kts 54°
2026-05-08 07:47 43.13467 154.71503 32782 ft 558 kts 55°
2026-05-08 07:48 43.17768 154.80269 32790 ft 558 kts 54°
2026-05-08 07:48 43.22092 154.89108 32793 ft 558 kts 55°
2026-05-08 07:49 43.26418 154.97977 32799 ft 560 kts 54°
2026-05-08 07:49 43.30693 155.06772 32802 ft 558 kts 54°
2026-05-08 07:50 43.35003 155.15659 32803 ft 561 kts 54°
2026-05-08 07:50 43.39320 155.24591 32806 ft 560 kts 54°
2026-05-08 07:51 43.43604 155.33482 32808 ft 558 kts 54°
2026-05-08 07:51 43.47872 155.42366 32806 ft 558 kts 54°
2026-05-08 07:52 43.52137 155.51270 32808 ft 559 kts 54°
2026-05-08 07:52 43.56382 155.60159 32808 ft 558 kts 54°
2026-05-08 07:53 43.60618 155.69057 33022 ft 557 kts 54°
2026-05-08 07:53 43.62755 155.73555 33205 ft 559 kts 55°
2026-05-08 07:53 43.64878 155.78032 33386 ft 559 kts 55°
2026-05-08 07:53 43.66985 155.82480 33580 ft 557 kts 55°
2026-05-08 07:54 43.69078 155.86909 33783 ft 555 kts 54°
2026-05-08 07:54 43.71182 155.91365 33986 ft 555 kts 54°
2026-05-08 07:54 43.73300 155.95859 34196 ft 555 kts 55°
2026-05-08 07:54 43.75373 156.00262 34400 ft 554 kts 55°
2026-05-08 07:55 43.77479 156.04742 34561 ft 553 kts 54°
2026-05-08 07:55 43.79553 156.09164 34711 ft 553 kts 54°
2026-05-08 07:55 43.81644 156.13628 34826 ft 552 kts 54°
2026-05-08 07:56 43.85817 156.22553 34820 ft 551 kts 55°
2026-05-08 07:56 43.89947 156.31415 34829 ft 552 kts 55°
2026-05-08 07:57 43.94105 156.40366 34830 ft 552 kts 54°
2026-05-08 07:57 43.98229 156.49269 34836 ft 553 kts 54°
2026-05-08 07:58 44.02373 156.58243 34833 ft 553 kts 54°
2026-05-08 07:58 44.06519 156.67250 34824 ft 555 kts 56°
2026-05-08 07:59 44.10644 156.76239 34820 ft 555 kts 55°
2026-05-08 07:59 44.14777 156.85274 34831 ft 555 kts 55°
2026-05-08 08:00 44.18905 156.94325 34843 ft 554 kts 55°
2026-05-08 08:00 44.23028 157.03395 34850 ft 556 kts 55°
2026-05-08 08:01 44.27127 157.12440 34856 ft 554 kts 55°
2026-05-08 08:01 44.31230 157.21519 34855 ft 557 kts 55°
2026-05-08 08:02 44.35334 157.30635 34866 ft 555 kts 55°
2026-05-08 08:02 44.39433 157.39764 34867 ft 556 kts 55°
2026-05-08 08:03 44.43533 157.48926 34869 ft 557 kts 55°
2026-05-08 08:03 44.47618 157.58086 34873 ft 556 kts 55°
2026-05-08 08:04 44.51701 157.67268 34865 ft 559 kts 56°
2026-05-08 08:04 44.55764 157.76436 34874 ft 557 kts 55°
2026-05-08 08:05 44.59840 157.85661 34866 ft 556 kts 56°
2026-05-08 08:05 44.63902 157.94885 34874 ft 557 kts 56°
2026-05-08 08:06 44.67962 158.04135 34878 ft 557 kts 55°
2026-05-08 08:06 44.71991 158.13342 34879 ft 559 kts 55°
2026-05-08 08:07 44.76031 158.22606 34890 ft 558 kts 56°
2026-05-08 08:07 44.80067 158.31891 34888 ft 558 kts 56°
2026-05-08 08:08 44.84101 158.41202 34887 ft 558 kts 55°
2026-05-08 08:08 44.88111 158.50485 34899 ft 558 kts 55°
2026-05-08 08:09 44.92126 158.59813 34909 ft 556 kts 55°
2026-05-08 08:09 44.96125 158.69135 34892 ft 558 kts 56°
2026-05-08 08:10 45.00125 158.78487 34899 ft 558 kts 56°
2026-05-08 08:10 45.04108 158.87834 34907 ft 559 kts 56°
2026-05-08 08:11 45.08110 158.97252 34908 ft 560 kts 56°
2026-05-08 08:11 45.12087 159.06647 34905 ft 560 kts 56°
2026-05-08 08:12 45.16077 159.16101 34910 ft 560 kts 55°
2026-05-08 08:12 45.20061 159.25574 34916 ft 562 kts 56°
2026-05-08 08:13 45.24015 159.35008 34920 ft 560 kts 55°
2026-05-08 08:13 45.27976 159.44490 34917 ft 561 kts 55°
2026-05-08 08:14 45.31945 159.54024 34923 ft 559 kts 55°
2026-05-08 08:14 45.35894 159.63541 34927 ft 562 kts 55°
2026-05-08 08:15 45.39810 159.73010 34905 ft 559 kts 56°
2026-05-08 08:15 45.43735 159.82535 34921 ft 561 kts 56°
2026-05-08 08:16 45.47667 159.92107 34922 ft 561 kts 56°
2026-05-08 08:16 45.51588 160.01688 34921 ft 562 kts 56°
2026-05-08 08:17 45.55502 160.11282 34927 ft 560 kts 56°
2026-05-08 08:17 45.59423 160.20927 34927 ft 564 kts 56°
2026-05-08 08:18 45.63328 160.30569 34934 ft 561 kts 56°
2026-05-08 08:18 45.67215 160.40199 34941 ft 561 kts 55°
2026-05-08 08:19 45.71095 160.49841 34947 ft 562 kts 55°